Regional Weather Roundup
Issued by NWS

Home | Current Version | Previous Version | Text Only | Print | Product List | Glossary Off
Versions: 1 2 3 4 5 6 7 8 9 10 11 12 13 14 15 16 17 18 19 20 21 22 23 24 25 26 27 28 29 30 31 32 33 34 35 36 37 38 39 40 41 42 43 44 45 46 47 48 49 50

389
ASUS45 KPSR 182310
RWRAZ

ARIZONA HOURLY REGIONAL WEATHER ROUNDUP
NATIONAL WEATHER SERVICE PHOENIX AZ
400 PM MST MON SEP 18 2017

NOTE: FAIR INDICATES FEW OR NO CLOUDS BELOW 12,000 FEET WITH NO
SIGNIFICANT WEATHER AND/OR OBSTRUCTIONS TO VISIBILITY.

AZZ001>003-036-190000-
NORTHWEST ARIZONA

CITY           SKY/WX    TMP DP  RH WIND       PRES   REMARKS
BULLHEAD CITY  SUNNY     97  39  13 S22G30    29.74F
KINGMAN        SUNNY     85  37  18 S22G28    29.96F
$$

AZZ004>008-015-016-018-190000-
NORTH CENTRAL ARIZONA

CITY           SKY/WX    TMP DP  RH WIND       PRES   REMARKS
GRAND CANYON   SUNNY     74  22  14 SW18G29   30.13F
WILLIAMS       SUNNY     73  21  14 S15       30.15F
PRESCOTT       SUNNY     78  23  13 SW10G24   30.07F
FLAGSTAFF      SUNNY     69  16  13 SW21G31   30.18F
PAYSON           N/A     81  12   7 SW15G22   30.11F
PAGE           SUNNY     85  28  12 N9        29.91F
$$

AZZ009>014-017-190000-
NORTHEAST ARIZONA

CITY           SKY/WX    TMP DP  RH WIND       PRES   REMARKS
WINSLOW        SUNNY     85  19   9 SW18G26   30.03F
SAINT JOHNS    SUNNY     82  19   9 SW18G29   30.09F
WINDOW ROCK    SUNNY     79  21  11 SW18G28   30.14F
SHOW LOW       SUNNY     77  21  12 SW20G30   30.16F
$$

AZZ540-542>544-546-548-190000-
GREATER PHOENIX AREA

CITY           SKY/WX    TMP DP  RH WIND       PRES   REMARKS
PHOENIX        SUNNY     98  32  10 SW5       29.81F
BUCKEYE        SUNNY     95  30  10 SW7       29.83F
GLENDALE       SUNNY     97  32  10 N6        29.84F
LUKE AFB       SUNNY     96  30  10 SW5       29.81F
DEER VALLEY    SUNNY     94  28   9 S7        29.84F
SCOTTSDALE     SUNNY     95  27   9 S5        29.86F
MESA-FALCON    SUNNY     97  30   9 S9        29.85F
MESA-GATEWAY   SUNNY     95  30  10 W7        29.85F
CHANDLER       SUNNY     97  25   7 VRB6      29.83F
$$

AZZ539-553-190000-
SOUTHWEST MARICOPA COUNTY AND PINAL COUNTY

CITY           SKY/WX    TMP DP  RH WIND       PRES   REMARKS
CASA GRANDE    NOT AVBL
GILA BEND      SUNNY    100  21   6 SW14      29.78F
$$

AZZ503-504-507>509-190000-
SOUTHEAST ARIZONA

CITY           SKY/WX    TMP DP  RH WIND       PRES   REMARKS
TUCSON         SUNNY     96  42  15 W12G21    29.93F
DAVIS-MONTHAN  SUNNY     98  40  13 W16       29.91F
RYAN FIELD     SUNNY     97  39  13 SW5G16    29.91F
NOGALES        MOSUNNY   90  52  27 SW9       30.02F
SIERRA VISTA   SUNNY     88  44  21 SW10      30.08F
DOUGLAS        MOSUNNY   90  47  22 SW9G20    30.01F
SAFFORD        SUNNY     94  38  14 VRB3      29.92F
$$

AZZ532-190000-
SOUTHWEST ARIZONA

CITY           SKY/WX    TMP DP  RH WIND       PRES   REMARKS
YUMA           NOT AVBL
$$

CAZ041-043-047-048-061-525>527-560>570-190000-
SOUTHERN CALIFORNIA

CITY           SKY/WX    TMP DP  RH WIND       PRES   REMARKS
DOWNTOWN L.A.  SUNNY     75  61  61 W8        29.90F
L.A. AIRPORT   MOSUNNY   72  62  71 W13       29.91F
SAN DIEGO      PTSUNNY   74  60  61 NW10      29.93F
BURBANK        SUNNY     76  58  53 S9        29.89F
ONTARIO        SUNNY     82  57  42 W13       29.88F
RIVERSIDE      SUNNY     83  58  42 W12       29.88F
PALM SPRINGS   SUNNY     94  53  25 CALM      29.79F
IMPERIAL       SUNNY     97  57  26 VRB6      29.73F
BLYTHE         SUNNY     98  39  13 S14       29.76F
NEEDLES        SUNNY     99  42  14 S15       29.78F
$$

NVZ020-UTZ003-190000-
SOUTHERN NEVADA-UTAH

CITY           SKY/WX    TMP DP  RH WIND       PRES   REMARKS
LAS VEGAS      MOSUNNY   93  37  14 S13G20    29.78F
SALT LAKE CITY PTSUNNY   81  34  18 S18G29    29.76F
$$

NMZ009-TXZ055-190000-
NEW MEXICO-WEST TEXAS

CITY           SKY/WX    TMP DP  RH WIND       PRES   REMARKS
ALBUQUERQUE    MOSUNNY   83  29  14 CALM      30.05F
EL PASO        MOSUNNY   93  45  19 W8        29.98F
$$


........................KEY........................
SKY/WX - SKY CONDITION/WEATHER
TMP    - TEMPERATURE IN FAHRENHEIT
DP     - DEW POINT IN FAHRENHEIT
RH     - RELATIVE HUMIDITY IN PERCENT
WIND   - DIRECTION AND SPEED IN MILES PER HOUR (MPH)
VRB    - VARIABLE WIND DIRECTION
PRES   - MEAN SEA LEVEL PRESSURE IN INCHES OF MERCURY
         F - FALLING PRESSURE   R - RISING PRESSURE
         S - STEADY PRESSURE
VSB    - VISIBILITY IN MILES
HX     - HEAT INDEX IN FAHRENHEIT
WCI    - WIND CHILL INDEX IN FAHRENHEIT
TC     - TEMPERATURE IN CELSIUS WHICH IS ALSO KNOWN AS
         TEMPERATURE IN CENTIGRADE
AFB    - AIR FORCE BASE
         LUKE AFB IS LUKE AIR FORCE BASE
         DAVIS-MONTHAN IS DAVIS-MONTHAN AIR FORCE BASE
NAS    - NAVAL AIR STATION
         EL CENTRO NAS IS EL CENTRO NAVAL AIR STATION
N/A    - NOT AVAILABLE





USA.gov is the U.S. government's official web portal to all federal, state and local government web resources and services.